Location: *
(10.5081°N, 66.9194°W)
Time: 04:39:49
(UTC+00:00)

Meteor 1-22 Rocket - Pass Details

Date: 30 March 2020
Orbit: 788 x 939 km, 81.2° (Epoch: 24 May)

Event Time Altitude Azimuth Distance (km) Brightness Sun altitude
Rises 22:58:05 0° 177° (S) 3,376 7.2 -5.6°
Reaches altitude 10° 23:00:33 10° 174° (S) 2,421 6.5 -6.2°
Maximum altitude 23:05:54 60° 95° (E) 920 4.1 -7.6°
Drops below altitude 10° 23:11:07 10° 16° (NNE) 2,355 6.4 -8.8°
Sets 23:13:29 0° 12° (NNE) 3,276 7.2 -9.4°
